Location: Birkenwerder
(52.6919°N, 13.2774°E)
Time: 21:49:31
(UTC+00:00)

COBE Rocket - Pass Details

Date: 07 June 2020
Orbit: 680 x 782 km, 97.1° (Epoch: 04 July)

Event Time Altitude Azimuth Distance (km) Brightness Sun altitude
Rises 01:39:41 0° 162° (SSE) 3,209 6.9 -7.4°
Reaches altitude 10° 01:41:58 10° 162° (SSE) 2,300 6.1 -7.2°
Maximum altitude 01:47:04 83° 76° (ENE) 789 4.2 -6.8°
Drops below altitude 10° 01:52:17 10° 348° (NNW) 2,350 7.1 -6.3°
Sets 01:54:38 0° 348° (NNW) 3,285 7.9 -6.1°
